Temp
11 11 11 12 12 12 12 12 13 13 13 13 12 12 13 13 13 13 14 13 12 13 14 13 14 13 13 12 10 10 10 10 11 13 12 13 14 13 13 14 13 12 12 12 10
11 11 11 12 12 12 12 12 13 13 13 13 13 13 13 13 14 15 13 12 12 13 13 14 14 13 13 13 10 10 11 12 14 13 13 12 13 13 13 14 13 13 11 11 11
11 11 11 11 12 12 12 12 13 13 13 13 13 13 13 13 14 15 13 13 13 13 13 13 13 13 13 11 10 11 12 14 13 12 12 13 13 14 13 13 14 14 13 12 11
10 11 11 11 11 12 12 12 12 13 13 13 13 13 14 14 13 15 14 13 13 13 13 13 13 12 12 11 11 11 12 13 13 13 13 14 14 14 14 14 14 14 14 14 13
10 10 10 11 11 11 11 12 12 13 13 13 13 14 14 14 16 13 14 14 13 13 13 14 13 13 12 11 12 13 13 14 14 13 14 14 15 14 14 14 14 14 13 13 13
9 9 9 10 10 10 11 12 12 12 12 13 13 14 14 15 14 13 14 13 13 14 13 13 14 13 12 12 12 14 14 15 15 15 14 15 15 13 13 14 14 14 14 13 13
8 8 8 8 9 9 10 11 12 12 12 12 13 13 15 15 13 14 14 13 13 13 13 13 13 11 12 12 13 14 14 14 15 15 15 13 14 13 14 16 14 14 14 13 12
7 7 8 8 8 8 9 10 11 12 12 12 12 13 15 14 13 14 14 14 14 13 13 12 12 11 11 12 13 13 14 14 15 14 15 14 15 14 14 15 15 15 14 14 13
7 7 8 7 8 8 9 9 10 11 11 12 12 13 14 14 15 13 14 13 13 13 12 12 11 11 11 12 13 13 14 15 16 15 16 16 17 16 15 14 15 14 14 13 13
7 7 7 8 8 8 9 9 10 10 10 10 11 12 12 12 12 12 12 12 12 12 12 11 10 11 11 12 12 13 14 15 16 17 16 17 17 16 15 14 15 13 13 10 11
6 6 6 7 7 7 8 9 8 8 8 8 9 11 12 11 11 11 11 11 10 10 10 11 10 10 11 12 12 13 14 16 16 17 17 17 17 15 15 13 13 14 11 12 11
6 6 6 6 6 6 6 7 6 4 8 10 11 10 11 10 11 12 10 10 10 10 10 10 10 11 11 12 12 13 14 15 17 17 17 16 18 18 15 15 15 13 12 11 11
6 6 6 5 6 6 6 6 6 6 5 9 9 10 11 10 11 12 9 10 10 10 10 10 12 11 12 12 13 13 14 15 16 18 18 17 18 18 17 16 15 15 14 12 13
6 5 5 6 5 5 5 6 6 4 3 8 7 6 7 9 9 10 10 9 9 10 10 11 11 13 12 13 13 14 14 15 15 16 18 17 17 18 18 17 16 15 13 14 12
5 5 5 5 4 4 5 5 4 2 2 7 6 6 7 7 10 11 10 10 10 10 11 11 11 12 12 13 13 14 14 15 15 16 17 17 17 18 18 17 16 16 15 14 13
4 4 5 4 3 4 4 3 3 2 4 6 5 5 6 6 7 8 9 10 10 10 11 11 12 12 13 13 14 14 14 15 15 16 15 17 17 17 18 19 18 17 16 15 13
3 4 4 5 3 3 3 3 2 3 5 5 3 5 5 4 5 5 8 10 10 10 11 12 12 13 14 13 14 14 15 14 14 14 14 17 18 18 19 19 18 18 17 16 16
2 3 3 3 2 1 1 1 1 4 4 3 1 2 2 2 5 2 3 7 10 10 11 11 12 13 13 14 14 14 14 14 12 13 15 17 17 18 19 19 19 19 18 17 17
2 2 1 1 -0 -1 -0 0 2 2 1 1 1 1 1 1 2 1 1 4 7 10 11 12 11 13 13 14 15 15 15 15 16 17 16 18 17 18 18 19 19 19 18 18 17
2 2 -1 -1 -1 -1 -1 -0 1 1 1 0 0 1 0 0 -0 -1 -1 3 3 6 8 11 11 13 14 14 15 15 15 15 16 12 13 16 18 18 19 19 19 19 19 19 18
1 1 -1 -1 -0 -0 -0 0 -0 -0 -0 -0 -0 -0 -0 -0 -1 -2 -1 1 0 2 4 7 10 13 13 15 14 16 16 16 16 16 11 12 17 19 19 19 20 20 19 19 18
0 -0 -2 -1 -2 -1 -1 -1 -1 -1 -1 -1 -1 -1 -1 -1 -1 -2 -3 -3 -2 -1 0 3 7 11 12 14 16 15 16 16 16 15 17 17 17 20 19 20 20 20 20 19 19
-1 -1 -1 -1 -3 -3 -2 -3 -2 -1 -2 -2 -2 -2 -2 -2 -3 -3 -4 -3 -4 -2 -2 2 6 10 12 12 13 16 16 16 16 16 16 15 16 18 19 20 20 20 20 19 19
-1 -3 -2 -2 -4 -5 -5 -3 -3 -3 -3 -3 -3 -3 -3 -3 -3 -5 -4 -4 -3 -2 -1 -2 3 4 9 13 13 15 16 16 16 16 16 17 17 18 19 21 20 19 19 20 19
-2 -3 -4 -4 -3 -4 -6 -5 -4 -3 -4 -4 -5 -4 -4 -4 -4 -4 -4 -4 -4 -2 -2 -1 3 6 9 12 14 14 16 16 16 16 16 17 17 18 19 19 20 19 19 19 19
-3 -4 -3 -3 -4 -4 -6 -5 -6 -5 -5 -4 -4 -4 -4 -4 -4 -4 -4 -5 -5 -2 -3 1 2 6 9 11 12 13 15 16 16 16 16 17 18 18 19 19 19 19 19 18 19
-3 -3 -4 -4 -5 -5 -6 -5 -5 -6 -4 -4 -4 -4 -4 -4 -5 -3 -3 -3 -3 -4 -3 -3 1 4 8 10 11 12 13 16 16 17 17 16 17 18 18 18 18 18 18 18 18
Height
3144 3142 3139 3137 3135 3133 3131 3129 3127 3124 3123 3122 3122 3120 3120 3120 3119 3120 3123 3128 3128 3129 3132 3135 3139 3142 3146 3149 3150 3156 3157 3154 3155 3154 3157 3154 3151 3156 3155 3154 3155 3156 3159 3160 3163
3143 3140 3137 3135 3132 3130 3128 3126 3124 3122 3120 3119 3118 3117 3116 3117 3116 3117 3121 3121 3123 3125 3128 3132 3136 3139 3142 3148 3150 3157 3159 3154 3156 3157 3156 3154 3158 3153 3152 3154 3157 3157 3160 3161 3164
3140 3138 3135 3132 3130 3127 3125 3123 3121 3119 3117 3116 3115 3114 3113 3112 3113 3114 3113 3117 3119 3122 3126 3128 3132 3136 3140 3144 3148 3154 3154 3157 3157 3157 3158 3156 3159 3159 3154 3156 3158 3159 3158 3160 3164
3136 3134 3131 3128 3126 3123 3121 3119 3117 3115 3114 3112 3111 3110 3109 3110 3112 3110 3111 3113 3116 3118 3121 3123 3127 3131 3135 3139 3145 3150 3151 3156 3155 3156 3156 3153 3156 3158 3155 3158 3159 3161 3163 3162 3164
3133 3129 3126 3123 3121 3118 3116 3114 3111 3110 3108 3107 3106 3105 3105 3105 3109 3107 3109 3110 3112 3114 3117 3120 3123 3128 3131 3137 3143 3146 3150 3153 3152 3155 3154 3154 3155 3155 3154 3156 3158 3160 3162 3164 3165
3129 3126 3122 3119 3116 3112 3109 3107 3106 3104 3103 3101 3101 3100 3099 3100 3104 3103 3107 3108 3109 3112 3114 3116 3120 3126 3132 3135 3140 3143 3148 3147 3150 3152 3149 3153 3155 3155 3155 3155 3158 3160 3161 3164 3166
3127 3123 3119 3116 3112 3108 3104 3101 3098 3097 3096 3095 3095 3094 3092 3099 3099 3099 3100 3104 3105 3109 3111 3115 3120 3123 3130 3134 3137 3140 3145 3146 3146 3148 3152 3155 3155 3153 3153 3153 3157 3159 3161 3164 3166
3126 3122 3118 3113 3109 3104 3100 3095 3093 3090 3089 3088 3087 3087 3084 3094 3092 3092 3094 3100 3101 3105 3109 3113 3118 3121 3125 3132 3133 3136 3139 3142 3143 3145 3147 3151 3149 3151 3152 3152 3155 3158 3160 3163 3164
3123 3119 3114 3110 3105 3101 3096 3092 3088 3084 3083 3081 3080 3080 3081 3084 3087 3091 3090 3094 3099 3102 3106 3109 3113 3116 3123 3126 3129 3127 3130 3134 3138 3140 3139 3143 3146 3150 3153 3152 3153 3155 3158 3160 3163
3121 3117 3112 3107 3102 3097 3091 3086 3082 3078 3077 3075 3073 3076 3078 3081 3082 3084 3087 3090 3093 3098 3101 3104 3108 3111 3113 3116 3114 3121 3126 3129 3131 3134 3139 3140 3141 3142 3146 3147 3149 3155 3158 3160 3160
3119 3114 3110 3105 3100 3094 3092 3087 3080 3071 3069 3069 3067 3064 3068 3069 3072 3075 3081 3085 3089 3093 3092 3097 3101 3093 3099 3108 3117 3122 3123 3125 3126 3130 3132 3134 3137 3135 3140 3144 3145 3154 3161 3162 3161
3117 3112 3107 3102 3097 3093 3086 3082 3077 3071 3050 3057 3055 3054 3064 3069 3065 3067 3075 3077 3080 3080 3089 3095 3084 3092 3104 3109 3113 3116 3116 3120 3122 3124 3128 3134 3133 3136 3132 3132 3138 3148 3157 3165 3167
3116 3110 3104 3100 3095 3091 3085 3080 3075 3069 3059 3050 3045 3049 3053 3057 3057 3062 3067 3071 3072 3076 3078 3078 3077 3093 3099 3103 3108 3109 3110 3113 3116 3119 3122 3125 3128 3133 3133 3133 3138 3139 3145 3158 3159
3114 3108 3101 3096 3093 3087 3083 3079 3072 3067 3062 3056 3051 3053 3049 3048 3048 3058 3060 3070 3071 3070 3077 3075 3083 3086 3091 3095 3101 3102 3105 3109 3110 3116 3114 3123 3123 3125 3129 3131 3133 3136 3143 3144 3155
3110 3104 3099 3089 3087 3083 3081 3075 3070 3068 3069 3058 3052 3050 3045 3050 3057 3055 3060 3058 3059 3067 3075 3063 3073 3078 3083 3084 3094 3098 3106 3106 3106 3111 3115 3114 3118 3114 3122 3124 3123 3127 3132 3138 3148
3105 3100 3094 3089 3082 3078 3074 3073 3069 3071 3064 3059 3052 3047 3047 3045 3047 3048 3051 3057 3063 3065 3064 3066 3073 3075 3075 3084 3091 3099 3103 3105 3104 3107 3105 3108 3111 3112 3113 3116 3119 3122 3129 3133 3141
3101 3094 3088 3084 3081 3077 3072 3070 3071 3067 3062 3057 3048 3049 3048 3046 3038 3040 3040 3047 3050 3056 3053 3064 3062 3068 3073 3079 3085 3090 3095 3097 3099 3095 3096 3101 3103 3106 3109 3114 3114 3115 3119 3126 3129
3096 3087 3083 3081 3076 3070 3071 3070 3070 3065 3060 3054 3051 3049 3047 3044 3039 3036 3032 3034 3044 3048 3053 3051 3051 3053 3063 3066 3075 3078 3081 3082 3089 3088 3090 3097 3092 3094 3102 3107 3114 3113 3112 3118 3125
3091 3084 3077 3073 3071 3072 3072 3070 3066 3064 3060 3054 3048 3046 3044 3043 3042 3040 3035 3031 3034 3045 3045 3046 3039 3052 3055 3062 3068 3071 3071 3083 3084 3086 3088 3087 3091 3094 3097 3097 3105 3111 3112 3112 3119
3084 3080 3075 3073 3073 3070 3071 3068 3068 3063 3059 3056 3054 3052 3047 3047 3045 3046 3040 3028 3025 3028 3030 3036 3045 3045 3050 3059 3060 3061 3073 3078 3078 3084 3088 3085 3085 3082 3088 3089 3094 3102 3108 3108 3110
3085 3080 3074 3072 3071 3069 3067 3066 3063 3061 3058 3056 3052 3050 3050 3048 3048 3048 3040 3029 3028 3020 3023 3029 3033 3028 3043 3043 3043 3054 3058 3066 3074 3076 3079 3085 3076 3076 3079 3082 3085 3092 3100 3106 3108
3081 3074 3069 3065 3067 3064 3061 3060 3060 3056 3053 3050 3049 3048 3046 3046 3045 3045 3039 3038 3028 3027 3022 3027 3021 3021 3023 3030 3042 3048 3052 3059 3061 3066 3070 3074 3064 3069 3070 3069 3078 3085 3093 3099 3103
3075 3072 3069 3061 3059 3057 3055 3054 3055 3053 3050 3047 3047 3046 3045 3044 3039 3036 3032 3031 3027 3025 3024 3022 3018 3016 3017 3027 3030 3036 3042 3051 3059 3066 3066 3070 3062 3069 3065 3059 3069 3078 3088 3095 3100
3073 3065 3061 3060 3058 3055 3052 3051 3048 3048 3047 3044 3044 3042 3040 3039 3037 3029 3027 3024 3022 3020 3021 3022 3012 3013 3011 3014 3025 3028 3034 3044 3053 3056 3062 3059 3066 3069 3062 3057 3066 3077 3085 3092 3098
3071 3069 3063 3057 3055 3052 3051 3049 3045 3045 3045 3043 3040 3039 3036 3034 3032 3030 3025 3020 3018 3015 3013 3016 3005 3007 3005 3009 3016 3023 3029 3037 3041 3051 3054 3058 3065 3067 3066 3063 3070 3077 3084 3088 3096
3069 3064 3059 3056 3054 3049 3048 3046 3044 3042 3041 3037 3037 3033 3033 3030 3026 3021 3024 3017 3013 3009 3008 3005 3005 2999 2998 3005 3013 3018 3020 3027 3038 3045 3053 3054 3059 3065 3067 3068 3071 3076 3082 3086 3092
3064 3060 3055 3052 3049 3047 3045 3043 3040 3038 3034 3033 3032 3029 3027 3026 3021 3018 3016 3016 3014 3010 3007 3007 3007 3001 2998 3004 3011 3016 3016 3025 3032 3040 3047 3049 3053 3062 3065 3065 3069 3075 3079 3083 3087
Wind_Speed
16 16 17 18 19 19 19 19 20 21 19 19 17 17 15 16 20 21 15 11 16 18 23 23 22 18 15 9 8 4 10 17 3 4 8 17 15 13 6 7 6 2 6 30 35
16 17 17 17 18 18 19 20 20 20 20 19 19 19 18 15 18 14 10 17 19 20 22 26 24 21 17 11 14 15 14 8 15 6 4 3 11 11 14 6 3 4 22 28 33
19 19 19 19 19 18 18 19 20 21 20 21 20 20 20 19 16 11 18 19 20 18 18 24 25 23 21 14 15 20 14 10 8 8 11 9 14 19 14 9 3 9 22 27 33
20 21 21 22 22 22 21 20 20 20 20 21 21 21 22 21 12 4 17 19 17 16 20 25 28 24 22 20 14 24 21 14 15 10 15 13 13 12 14 4 4 7 11 19 26
21 22 22 23 23 23 23 23 22 21 21 21 22 23 23 24 9 19 10 17 20 20 20 26 31 26 24 19 15 20 24 11 7 2 12 19 16 9 16 11 7 7 15 15 21
23 23 23 24 24 24 24 24 24 24 22 22 22 24 26 24 15 22 15 17 15 18 19 26 31 28 20 19 20 15 21 24 17 15 12 18 13 22 15 11 4 11 13 17 18
24 24 24 23 23 24 25 25 25 25 26 25 23 26 30 16 19 19 21 19 21 16 21 18 25 25 19 20 18 21 24 20 26 17 12 11 22 22 21 10 9 11 14 16 21
24 24 23 25 26 27 27 28 25 25 25 27 27 27 31 19 23 24 21 14 20 19 19 19 23 26 24 20 22 25 23 26 26 24 22 22 26 31 24 15 13 11 13 14 15
24 23 23 25 27 28 28 30 26 25 25 26 28 30 28 25 25 19 23 18 15 21 17 22 27 28 23 26 27 29 32 27 24 21 15 31 18 23 30 28 15 16 16 17 14
25 25 25 26 28 31 34 36 33 27 20 24 29 26 20 16 8 21 23 21 21 22 21 24 26 26 30 33 37 31 23 27 26 24 27 25 23 26 32 31 22 17 19 30 26
27 26 26 26 27 28 28 28 33 33 40 25 26 29 23 18 22 16 23 28 23 23 29 26 32 44 42 38 32 29 29 28 30 26 24 28 27 34 34 39 37 15 28 25 30
28 29 27 26 26 26 29 28 26 32 53 35 23 32 27 18 29 24 17 32 35 39 31 29 45 41 35 35 33 34 36 32 25 26 29 28 29 26 37 44 39 12 32 32 24
33 30 30 27 26 26 26 25 22 28 40 28 17 12 20 34 33 31 25 29 40 41 41 45 39 36 35 36 36 38 40 36 31 28 19 31 36 33 35 41 37 34 16 35 26
37 34 32 29 26 25 24 22 21 22 21 20 21 17 18 15 42 29 32 31 40 43 42 46 38 24 39 41 40 41 41 38 34 28 19 29 6 30 39 36 33 32 38 16 35
37 35 33 33 28 25 20 17 15 12 6 17 17 12 16 2 11 18 31 35 45 40 40 49 40 42 40 46 40 40 35 37 39 34 23 36 34 36 36 35 36 38 39 25 29
34 35 34 30 25 25 20 10 11 2 6 11 25 25 18 9 13 21 18 34 37 40 40 47 34 32 48 36 38 34 34 34 39 36 24 29 36 35 44 37 40 35 37 31 33
34 35 33 25 17 15 15 11 7 5 12 18 33 28 28 28 24 15 11 32 39 43 49 38 47 40 29 45 33 36 34 21 19 20 14 31 28 34 33 34 37 38 36 41 36
33 35 32 17 16 27 19 9 6 10 16 24 26 28 24 23 25 33 27 16 38 45 26 44 36 49 42 40 37 42 46 25 15 9 13 31 26 34 32 25 34 33 39 43 36
34 30 22 15 21 28 15 8 12 17 17 23 30 25 32 32 28 37 38 17 18 42 47 30 52 24 48 39 42 42 49 39 21 20 10 15 29 36 32 39 33 34 40 33 37
37 26 18 23 30 16 9 16 22 16 21 21 22 19 27 27 27 25 28 12 19 5 23 53 37 38 35 44 39 44 37 37 36 9 10 20 33 40 34 41 38 35 28 48 43
31 18 9 17 17 11 19 19 17 16 16 16 21 22 21 19 20 21 21 34 14 17 5 19 39 48 35 49 55 41 39 45 33 31 6 6 23 39 41 37 41 40 32 42 46
34 15 11 14 22 13 12 14 16 19 15 15 16 13 16 19 22 22 29 27 38 26 22 12 18 39 50 35 45 40 44 42 31 28 33 23 29 26 22 46 37 46 34 24 48
38 24 24 11 7 13 15 11 13 16 20 16 21 26 20 20 23 20 22 25 39 28 19 18 5 16 38 44 35 56 44 50 36 32 31 19 27 24 26 17 42 42 42 30 35
36 27 35 9 7 15 18 15 17 14 13 18 15 14 14 20 23 23 29 21 28 25 15 24 17 28 18 36 31 30 50 42 44 35 33 40 28 20 6 20 38 42 29 41 38
35 29 31 29 19 15 11 13 20 19 20 16 18 17 11 22 22 17 17 23 31 25 18 23 20 20 25 25 27 34 47 46 45 42 35 35 24 24 6 20 29 33 29 25 41
33 35 34 25 21 18 10 14 15 16 22 19 18 21 23 18 21 21 21 27 24 26 20 21 16 13 18 24 22 23 27 49 46 42 42 27 32 25 17 17 22 23 27 27 34
34 34 32 32 23 19 16 16 23 17 18 14 16 24 22 17 15 22 17 24 22 23 29 21 23 18 6 13 7 9 26 42 47 41 39 44 34 26 26 24 22 28 29 30 32
Wind_Direction
332 326 321 317 313 311 308 307 307 306 303 300 297 293 285 270 259 255 245 237 227 220 212 216 216 216 210 214 173 307 176 316 356 97 37 121 128 130 93 171 85 97 125 152 155
336 333 329 324 319 313 309 305 302 302 303 299 293 288 286 280 268 259 245 227 224 223 217 209 212 211 217 181 175 211 240 290 139 72 51 95 123 141 146 164 199 224 161 158 160
329 326 323 320 316 313 310 305 300 298 297 297 293 287 284 282 277 244 238 229 234 230 218 212 210 207 212 195 177 210 234 125 112 0 153 116 140 153 178 212 101 166 163 165 166
326 322 320 316 312 309 308 305 301 295 291 289 289 286 281 277 275 311 227 235 237 229 218 212 205 199 206 199 197 222 247 259 268 262 179 117 147 163 216 215 116 150 151 168 167
331 328 324 319 314 309 303 298 295 293 290 283 281 280 278 271 289 262 245 231 230 226 220 211 209 199 203 200 210 224 236 230 298 145 228 173 159 148 188 211 184 187 173 167 175
343 340 335 329 324 316 305 296 290 286 284 281 275 271 271 270 268 261 249 244 238 230 223 212 211 202 210 212 216 210 236 238 247 219 208 164 154 141 167 202 230 199 186 182 177
346 345 344 343 338 329 316 304 291 283 279 276 273 268 262 268 266 256 249 234 233 229 222 216 213 188 207 223 221 229 246 245 236 227 199 205 160 170 202 181 218 187 185 180 172
346 348 351 349 349 347 344 325 307 286 275 273 270 267 263 263 253 253 260 229 226 223 218 210 204 194 205 218 223 241 245 233 243 222 224 195 189 175 186 227 180 174 179 188 178
347 346 349 348 349 350 349 349 335 306 286 271 267 266 272 258 250 253 252 252 225 216 209 208 196 193 195 223 236 239 244 245 221 216 238 199 216 208 212 215 199 181 180 176 179
340 339 342 346 345 345 343 341 338 335 309 289 268 262 263 261 248 235 232 229 230 211 206 207 189 208 213 213 224 230 237 231 230 217 220 220 226 218 191 193 202 193 183 186 196
331 335 340 342 341 338 339 336 343 341 324 305 270 257 236 202 197 232 225 213 197 214 204 205 198 212 213 212 219 227 229 230 232 233 222 213 219 207 185 183 183 232 221 203 191
341 333 333 332 333 336 335 345 347 339 326 327 300 261 238 215 213 204 228 206 192 211 198 213 216 211 219 221 219 225 234 243 235 233 232 219 227 218 189 202 213 223 226 214 204
353 348 337 333 331 332 336 342 345 346 324 30 31 15 245 219 232 213 194 227 203 206 204 208 222 211 218 218 220 221 233 238 237 234 253 210 221 228 205 207 215 229 206 204 218
343 343 345 345 329 331 334 339 355 5 327 30 24 23 343 269 231 215 200 223 215 216 212 219 211 225 209 219 216 225 224 231 242 250 199 208 246 223 214 207 216 207 185 239 215
340 342 348 340 335 333 333 352 11 44 305 341 333 319 31 252 258 260 212 200 221 215 211 218 219 213 213 216 216 227 222 233 240 252 253 207 218 227 215 206 201 212 213 203 199
340 340 345 341 332 332 355 356 16 350 246 317 331 319 344 4 314 263 263 212 225 219 226 227 228 220 220 218 219 222 227 233 241 248 254 246 216 233 215 210 212 211 206 202 187
341 339 340 344 330 330 349 0 355 238 315 331 339 315 303 327 322 339 275 228 216 218 232 231 230 225 219 223 217 218 218 229 238 231 234 242 234 231 221 214 209 218 219 208 219
344 339 337 341 348 359 341 15 268 304 314 300 333 337 342 337 303 330 324 261 227 221 231 230 233 223 218 220 212 209 214 211 216 210 232 239 246 244 235 233 233 217 215 216 221
348 347 338 342 347 336 336 313 297 337 328 325 324 335 335 334 307 315 320 303 247 224 230 227 238 231 219 218 216 207 218 224 247 234 251 221 251 251 245 238 236 219 212 220 220
349 1 3 344 332 343 311 283 314 325 324 328 324 322 328 336 325 322 317 264 324 268 228 234 259 233 228 215 225 226 212 217 226 201 221 234 227 237 234 235 235 223 234 219 215
353 13 298 311 316 318 286 293 312 316 324 330 316 307 315 327 322 319 282 282 292 333 290 242 237 237 223 214 220 213 209 210 221 230 183 208 236 236 245 235 220 213 220 216 209
355 6 297 304 305 305 294 329 314 324 319 306 290 303 310 321 305 296 292 272 290 321 325 320 262 236 239 218 219 221 218 208 212 218 232 243 252 214 316 242 224 209 208 219 209
351 356 357 330 335 299 273 305 336 339 327 308 311 306 279 318 310 293 299 290 282 291 322 337 280 249 242 246 238 217 215 219 217 216 228 231 252 273 280 261 208 205 202 207 202
350 347 346 356 321 304 310 314 313 293 308 313 324 324 300 293 298 295 312 315 293 275 329 324 283 246 255 232 231 224 208 211 218 208 220 236 244 269 308 213 198 199 203 208 210
347 347 341 334 347 331 331 315 310 302 327 318 302 307 291 310 300 301 297 302 292 261 335 346 289 263 249 224 219 232 213 205 214 217 212 229 234 233 220 170 184 198 205 195 204
342 338 338 343 340 332 330 309 316 316 311 310 313 303 307 287 297 307 310 327 302 262 324 10 308 310 250 224 246 282 243 202 211 219 228 232 231 226 211 181 170 179 193 183 192
338 338 336 331 338 337 329 311 309 309 307 298 307 306 303 311 298 302 295 301 308 287 295 322 340 345 268 228 261 259 224 201 206 211 218 227 230 206 195 181 184 183 181 179 181